Trenton, NJ

1:56 PM EDT on July 23, 2017 (GMT -0400)
Trenton Mercer

Weather History for KTTN - April, 2013

Change the Weather History Date:

Saturday, April 20, 2013

  Actual Average Record
Temperature  
Mean Temperature 51 °F 53 °F  
Max Temperature 57 °F 63 °F 91 °F (1941)
Min Temperature 44 °F 42 °F 27 °F (1926)
Degree Days  
Heating Degree Days 14 13  
Month to date heating degree days 255 311  
Since 1 July heating degree days 4641 4857  
Cooling Degree Days 0 0  
Month to date cooling degree days 14 0  
Year to date cooling degree days 14 0  
Growing Degree Days 2 (Base 50)    
Moisture  
Dew Point 32 °F    
Average Humidity 58    
Maximum Humidity 86    
Minimum Humidity 30    
Precipitation  
Precipitation 0.12 in 0.12 in 1.70 in (1911)
Month to date precipitation 2.01 2.54  
Year to date precipitation 9.22 12.15  
Sea Level Pressure  
Sea Level Pressure 29.99 in    
Wind  
Wind Speed 11 mph (NW)    
Max Wind Speed 20 mph    
Max Gust Speed 28 mph    
Visibility 10 miles    
Events Rain    
T = Trace of Precipitation, MM = Missing Value Source: NWS Daily Summary

Daily Weather History Graph

Daily Weather History Graph

Search for Another Location

Airport or City:

Trip Planner

Search our weather history database for the weather conditions in past years. The results will help you decide how hot, cold, wet, or windy it might be!

Date:

Astronomy

Apr. 20, 2013 Rise Set
Actual Time 6:13 AM EDT 7:43 PM EDT
Civil Twilight 5:44 AM EDT 8:12 PM EDT
Nautical Twilight 5:10 AM EDT 8:46 PM EDT
Astronomical Twilight 4:34 AM EDT 9:23 PM EDT
Moon 2:24 PM EDT (4/20) 3:02 AM EDT (4/20)
Length of Visible Light 14h 27m
Length of Day
13h 30m
Waxing Gibbous, 71% of the Moon is Illuminated
Apr 20
Waxing Gibbous
Apr 25
Full
May 2
Last Quarter
May 9
New
May 18
First Quarter

Hourly Weather History & Observations

Time (EDT) Temp. Windchill Dew Point Humidity Pressure Visibility Wind Dir Wind Speed Gust Speed Precip Events Conditions
12:53 AM 52.0 °F - 46.9 °F 83% 29.75 in 10.0 mi NNW 10.4 mph 19.6 mph 0.05 in Rain Light Rain
1:53 AM 50.0 °F - 46.0 °F 86% 29.73 in 7.0 mi WNW 5.8 mph - 0.04 in Rain Rain
2:53 AM 50.0 °F - 45.0 °F 83% 29.75 in 7.0 mi NW 10.4 mph - 0.07 in Rain Light Rain
3:53 AM 48.9 °F - 44.1 °F 83% 29.77 in 10.0 mi NW 9.2 mph - 0.01 in   Overcast
4:53 AM 48.9 °F - 42.1 °F 77% 29.81 in 10.0 mi NW 9.2 mph - 0.00 in   Overcast
5:53 AM 48.9 °F - 37.9 °F 66% 29.84 in 10.0 mi NW 11.5 mph 17.3 mph 0.00 in   Overcast
6:53 AM 48.9 °F - 36.0 °F 61% 29.88 in 10.0 mi NW 9.2 mph - N/A   Overcast
7:53 AM 48.9 °F - 34.0 °F 56% 29.90 in 10.0 mi NW 6.9 mph - N/A   Partly Cloudy
8:53 AM 50.0 °F - 35.1 °F 57% 29.92 in 10.0 mi NW 11.5 mph 23.0 mph N/A   Clear
9:53 AM 50.0 °F - 32.0 °F 50% 29.96 in 10.0 mi NW 10.4 mph 18.4 mph N/A   Clear
10:53 AM 48.9 °F - 26.1 °F 41% 30.00 in 10.0 mi WNW 13.8 mph 25.3 mph N/A   Clear
11:53 AM 51.1 °F - 30.0 °F 44% 30.01 in 10.0 mi NW 16.1 mph 26.5 mph N/A   Clear
12:53 PM 53.1 °F - 28.9 °F 40% 29.99 in 10.0 mi NW 13.8 mph 21.9 mph N/A   Partly Cloudy
1:53 PM 55.0 °F - 28.9 °F 37% 29.99 in 10.0 mi WNW 16.1 mph 26.5 mph N/A   Partly Cloudy
2:53 PM 57.0 °F - 30.0 °F 36% 29.99 in 10.0 mi NNW 11.5 mph 21.9 mph N/A   Scattered Clouds
3:53 PM 57.0 °F - 28.0 °F 33% 30.01 in 10.0 mi NNW 18.4 mph 23.0 mph N/A   Partly Cloudy
4:53 PM 57.0 °F - 27.0 °F 32% 30.04 in 10.0 mi NW 13.8 mph 24.2 mph N/A   Partly Cloudy
5:53 PM 55.9 °F - 26.1 °F 32% 30.06 in 10.0 mi NW 12.7 mph 19.6 mph N/A   Partly Cloudy
6:53 PM 54.0 °F - 24.1 °F 31% 30.10 in 10.0 mi NNW 13.8 mph 25.3 mph N/A   Clear
7:53 PM 52.0 °F - 24.1 °F 34% 30.15 in 10.0 mi NW 9.2 mph 17.3 mph N/A   Clear
8:53 PM 50.0 °F - 23.0 °F 35% 30.20 in 10.0 mi NW 6.9 mph - N/A   Clear
9:53 PM 48.9 °F - 23.0 °F 36% 30.25 in 10.0 mi NW 9.2 mph - N/A   Clear
10:53 PM 46.9 °F - 24.1 °F 41% 30.27 in 10.0 mi NW 5.8 mph - N/A   Clear
11:53 PM 46.0 °F 41.0 °F 24.1 °F 42% 30.29 in 10.0 mi NNW 10.4 mph - N/A   Clear